Location: Truman State University Observatory
(40.1787°N, 92.6006°W)
Time: 16:16:30
(UTC-06:00)

N. Korean satellite - Visible Passes

Search period start: 24 November 2017 00:00
Search period end: 04 December 2017 00:00
Orbit: 460 x 514 km, 97.2° (Epoch: 24 November)

Date Brightness Start Highest point End Pass type
(mag) Time Alt. Az. Time Alt. Az. Time Alt. Az.
24 Nov 8.9 06:25:18 10° NNE 06:28:40 31° E 06:32:01 10° SSE visible
24 Nov 7.8 18:34:07 10° S 18:37:28 42° W 18:40:54 10° NNW visible
25 Nov 9.9 06:02:38 10° NE 06:05:03 16° E 06:07:28 10° SE visible
25 Nov 6.4 18:10:26 10° SSE 18:13:57 88° ENE 18:17:34 10° N visible
26 Nov 6.9 17:47:09 10° SE 17:50:30 41° ENE 17:53:55 10° N visible
26 Nov 10.1 19:23:15 10° WSW 19:24:15 11° W 19:25:15 10° WNW visible
27 Nov 7.8 17:24:24 10° ESE 17:27:08 21° ENE 17:29:56 10° NNE visible
27 Nov 9.2 18:57:46 10° SSW 19:00:33 21° W 19:03:23 10° NW visible
28 Nov 8.9 06:24:48 10° NNE 06:28:10 30° E 06:31:31 10° SSE visible
28 Nov 7.8 18:33:32 10° S 18:36:56 43° W 18:40:25 10° NNW visible
29 Nov 9.9 06:02:08 10° NE 06:04:32 16° E 06:06:56 10° SE visible
29 Nov 6.5 18:09:50 10° SSE 18:13:24 87° ENE 18:17:03 10° N visible
30 Nov 6.9 17:46:33 10° SE 17:49:56 41° ENE 17:53:24 10° N visible
30 Nov 10.1 19:22:31 10° WSW 19:23:40 11° W 19:24:50 10° WNW visible
01 Dec 7.8 17:23:47 10° ESE 17:26:34 21° ENE 17:29:23 10° NNE visible
01 Dec 9.1 18:57:08 10° SSW 18:59:58 22° W 19:02:51 10° NW visible
02 Dec 8.9 06:24:15 10° NNE 06:27:37 30° E 06:30:56 10° SSE visible
02 Dec 7.8 18:32:53 10° S 18:36:20 44° W 18:39:51 10° NNW visible
03 Dec 9.9 06:01:34 10° NE 06:03:57 16° E 06:06:18 10° SE visible
03 Dec 6.5 18:09:11 10° SSE 18:12:47 86° ENE 18:16:29 10° N visible
